Location: Newark
(49.8348°N, 24.0280°E)
Time: 01:05:32
(UTC+00:00)

Explorer 7 - Pass Details

Date: 24 January 2020
Orbit: 485 x 679 km, 50.3° (Epoch: 27 February)

Event Time Altitude Azimuth Distance (km) Brightness Sun altitude
Rises 00:09:09 0° 267° (W) 2,548 - -54.3°
Reaches altitude 10° 00:11:18 10° 268° (W) 1,671 - -54.1°
Maximum altitude 00:15:04 83° 357° (N) 503 - -53.7°
Drops below altitude 10° 00:18:57 10° 86° (E) 1,721 - -53.3°
Sets 00:21:12 0° 87° (E) 2,632 - -53.0°
